Content
SEND FEEDBACK

Daily
Averages
Monthly
Summary
United States of America

PAIA, HAWAII


Home > North America > United States > Hawaii
Elevation: 170 feet     Latitude: 20 55N     Longitude: 156 23W

WEATHER
 
SELECT A DAY
Number of Records: 220,649;   Date Range: 1/1/95 - 10/24/14
 
SHARE

PRINT THIS DATA

[ ← Previous Day ]
WEATHER ALMANAC - JANUARY 23, 2013
[ Next Day → ]
[ °C ]   °F
Weather ElementAverageHighLow
Temperature72.7 °F81 °F (12:54 pm)66 °F (7:54 am)
Dewpoint61.9 °F64 °F (1:54 pm)57.9 °F (1:54 am)
Humidity69.6 %87 % (11:54 pm)54 % (12:54 pm)
Barometer30.05 in30.08 in (7:54 am)29.98 in (2:54 pm)
Wind Speed9.3 mph17.3 mph (4:54 am)
Wind Gust25.3 mph (1:54 pm)
Weather ElementAverage
Visibility10 mi
Wind DirectionENE (67 °)

Weather ElementTotal
Precipitation---
Cooling Degree Days8.5 (Base 65)
Growing Degree Days23.5 (Base 50)
Averaged from 23 records on January 23, 2013
WEATHER CONDITIONS BREAKOUT
WIND DIRECTION BREAKOUT
WEATHER BY HOUR - JANUARY 23, 2013
[ °C ]   °F
Local TimeTemperatureDewpointHumidityBarometerVisibilityWind DirectionWind SpeedGust SpeedPrecipitationEventsConditions
1:54 AM69.1 °F57.9 °F68 %30.06 in10.0 miNE (50°)11.5 mphClear
2:54 AM69.1 °F61.0 °F75 %30.05 in10.0 miNE (40°)16.1 mph19.6 mphClear
3:54 AM69.1 °F61.0 °F75 %30.04 in10.0 miNE (40°)16.1 mphMostly Cloudy
4:54 AM68.0 °F61.0 °F78 %30.04 in10.0 miNE (50°)17.3 mph20.7 mphClear
5:54 AM68.0 °F62.1 °F81 %30.04 in10.0 miENE (70°)16.1 mphClear
6:54 AM68.0 °F61.0 °F78 %30.06 in10.0 miNE (50°)11.5 mphScattered Clouds
7:54 AM66.0 °F57.9 °F75 %30.08 in10.0 miCalmClear
8:54 AM70.0 °F59.0 °F68 %30.08 in10.0 miSSE (150°)4.6 mphClear
9:54 AM75.0 °F60.1 °F60 %30.08 in10.0 miVariable6.9 mphScattered Clouds
10:54 AM77.0 °F61.0 °F58 %30.07 in10.0 miESE (120°)5.8 mphScattered Clouds
11:54 AM78.1 °F62.1 °F58 %30.06 in10.0 miVariable4.6 mphScattered Clouds
12:54 PM81.0 °F63.0 °F54 %30.03 in10.0 miENE (60°)17.3 mph21.9 mphScattered Clouds
1:54 PM81.0 °F64.0 °F56 %29.99 in10.0 miENE (60°)17.3 mph25.3 mphScattered Clouds
2:54 PM80.1 °F64.0 °F58 %29.98 in10.0 miNE (50°)12.7 mphScattered Clouds
3:54 PM78.1 °F64.0 °F62 %29.99 in10.0 miENE (70°)11.5 mphScattered Clouds
4:54 PM75.0 °F64.0 °F69 %30.01 in10.0 miENE (70°)8.1 mphScattered Clouds
5:54 PM75.9 °F63.0 °F64 %30.03 in10.0 miCalmMostly Cloudy
6:54 PM73.9 °F64.0 °F71 %30.04 in10.0 miEast (80°)8.1 mphMostly Cloudy
7:54 PM72.0 °F63.0 °F73 %30.06 in10.0 miEast (100°)5.8 mphMostly Cloudy
8:54 PM71.1 °F63.0 °F75 %30.06 in10.0 miENE (60°)8.1 mphScattered Clouds
9:54 PM70.0 °F62.1 °F76 %30.08 in10.0 miEast (90°)6.9 mphPartly Cloudy
10:54 PM69.1 °F63.0 °F81 %30.07 in10.0 miSSE (160°)4.6 mphScattered Clouds
11:54 PM66.9 °F63.0 °F87 %30.06 in10.0 miSouth (170°)3.5 mphPartly Cloudy
Hourly data recorded from PHOG, located miles away from Paia, Hawaii







STORIES FROM OUR PARTNERS